[[{"header":{"parameterUnit":"m.s-1","parameterCategory":1,"la1":30.2991,"la2":30.254,"lo1":-89.0895,"lo2":-89.0444,"dy":0.0017,"dx":0.0017,"nx":28,"ny":28,"refTime":"2023-08-08T03:00:00:Z","depth":0,"parameterNumber":2,"parameterNumberName":"U-component_of_WINDS"},"data":[0,0,0,0,0,0,0,0,0,0,0,0,0,0,0,0,0,0,0,0,0,0,0,0,0,0,0,0,0,0,0,0,0,0,0,0,0,0,0,0,0,0,0,0,0,0,0,0,0,0,0,0,0,0,0,0,0,0,3.2005,3.2005,0,3.1974,3.1973,3.1973,3.1872,3.187,3.1868,3.1866,3.1833,3.1835,3.1836,0,0,0,0,0,0,0,0,0,0,0,0,0,3.1977,3.1978,3.2005,3.2005,3.2004,3.1974,3.1973,3.1973,3.1872,3.187,3.1867,3.1864,3.1833,3.1835,3.1836,0,0,0,0,0,0,0,0,0,0,0,0,0,3.1972,3.1978,3.2005,3.1951,3.1945,3.1974,3.1973,3.1973,3.1873,3.187,3.1866,3.1863,3.1833,3.1834,3.1836,3.1915,0,0,3.1842,3.1843,0,0,0,0,0,0,0,0,3.1972,3.1973,3.1959,3.1954,3.1949,3.1923,3.1951,3.1953,3.1874,3.1901,3.1865,3.1862,3.1866,3.1865,3.1866,3.1913,3.1912,3.1842,3.1843,3.1844,3.1844,0,0,0,0,0,0,0,3.1973,3.1974,3.1993,3.1959,3.1953,3.1927,3.1923,3.1951,3.1903,3.1898,3.1891,3.1888,3.1863,3.1865,3.1865,3.1911,3.1842,3.1844,3.1845,3.1845,3.2017,3.202,0,0,0,0,0,0,3.1981,3.1975,3.1994,3.1992,3.1952,3.193,3.1925,3.1935,3.1902,3.1894,3.1891,3.1884,3.1863,3.1863,3.1863,3.195,3.1844,3.1846,3.1847,3.2014,3.2018,3.2022,0,0,0,0,0,0,3.1981,3.1984,3.1995,3.1981,3.1981,3.1934,3.1946,3.1936,3.1938,3.1897,3.1887,3.1902,3.1861,3.1861,3.1902,3.1948,3.1846,3.1848,3.201,3.2015,3.202,3.2126,0,0,0,0,0,0,3.198,3.1984,3.2014,3.1983,3.1982,3.2035,3.1949,3.1938,3.1941,3.1931,3.1905,3.1897,3.1858,3.19,3.1904,3.1948,3.185,3.2005,3.2012,3.2018,3.2118,3.2134,3.2148,0,0,0,0,0,3.198,3.2046,3.2016,3.2019,3.2018,3.2037,3.2037,3.199,3.1946,3.1975,3.1948,3.1898,3.1943,3.1905,3.1908,3.1954,3.2002,3.201,3.2018,3.2112,3.2131,3.2148,0,0,0,0,0,0,3.2085,3.2041,3.2007,3.2066,3.2056,3.202,3.2056,3.2013,3.2016,3.2007,3.1949,3.1944,3.1992,3.1978,3.1936,3.2027,3.1964,3.1973,3.2034,3.2052,3.2067,3.2068,3.1851,0,0,0,0,0,3.2115,3.2135,3.2095,3.215,3.2147,3.2103,3.2109,3.2074,3.2062,3.2057,3.2033,3.2023,3.2034,3.2043,3.2051,3.2116,3.2107,3.215,3.2165,3.2177,3.2184,3.2214,3.2232,3.2047,3.2047,3.2047,0,0,3.2177,3.2155,3.2171,3.2171,3.2159,3.2179,3.21,3.2126,3.214,3.2061,3.2097,3.208,3.2064,3.2117,3.2139,3.2106,3.2234,3.2187,3.2197,3.2198,3.2224,3.2242,3.2257,3.2052,3.2052,3.2051,0,0,3.23,3.2287,3.2329,3.2319,3.2302,3.2271,3.2282,3.2253,3.2237,3.2273,3.2213,3.2229,3.2251,3.2241,3.2239,3.2357,3.231,3.2361,3.2438,3.2468,3.2482,3.2495,3.2533,3.2548,3.2369,3.237,3.237,0,3.2379,3.2407,3.2357,3.2385,3.2385,3.2315,3.2356,3.2349,3.2336,3.2338,3.2302,3.2325,3.231,3.2357,3.2386,3.2388,3.2396,3.2363,3.2484,3.2496,3.2507,3.2543,3.2558,3.2376,3.2375,3.2374,3.2374,0,3.2503,3.2524,3.2561,3.2548,3.2553,3.2588,3.2542,3.2553,3.2517,3.2491,3.2526,3.2506,3.2507,3.2516,3.2483,3.2559,3.2538,3.2495,3.243,3.2532,3.2564,3.2578,3.2384,3.2382,3.238,3.2379,0,0,3.2691,3.2649,3.2663,3.2655,3.263,3.2645,3.2676,3.2677,3.2686,3.2679,3.2702,3.2721,3.268,3.2677,3.2642,3.2669,3.2758,3.2621,3.2619,3.2644,3.2837,3.2868,3.2885,3.2729,3.2731,3.2733,3.2837,0,3.2804,3.2854,3.2809,3.2868,3.2884,3.2817,3.2844,3.2831,3.2807,3.2817,3.2791,3.2803,3.2749,3.2747,3.2771,3.2743,3.2796,3.2735,3.2747,3.2748,3.275,3.2902,3.2936,3.3035,3.285,3.2852,3.2854,0,3.2943,3.294,3.3001,3.2969,3.2975,3.3,3.2995,3.3006,3.299,3.297,3.2967,3.2923,3.295,3.2889,3.2925,3.2884,3.2887,3.2874,3.2876,3.2873,3.2805,3.29,3.3066,3.3079,3.2874,3.2872,3.2871,0,3.3069,3.3081,3.3118,3.3114,3.3079,3.3098,3.3084,3.3065,3.3067,3.3063,3.3064,3.3064,3.3064,3.3064,3.3021,3.2981,3.3061,3.2997,3.3043,3.3044,3.3061,3.306,3.3226,3.3068,3.3068,3.3068,3.3068,0,3.3198,3.3236,3.3173,3.3196,3.3236,3.3184,3.3225,3.3205,3.3188,3.3204,3.3147,3.3163,3.3107,3.3117,3.3084,3.3116,3.3117,3.3101,3.3091,3.3104,3.3106,3.3103,3.3093,3.3072,3.3071,3.307,3.307,0,3.3344,3.3304,3.3339,3.3303,3.3295,3.3326,3.3294,3.3313,3.3285,3.3306,3.3308,3.3263,3.3272,3.323,3.3232,3.3209,3.3257,3.3237,3.3262,3.3255,3.3302,3.3297,3.3469,3.3488,3.3322,3.3324,3.3325,0,3.3428,3.3455,3.3422,3.3428,3.3417,3.3429,3.343,3.338,3.3384,3.3366,3.3386,3.339,3.339,3.3407,3.3375,3.3375,3.3353,3.3413,3.3353,3.3364,3.335,3.3347,3.3348,3.3425,3.3427,3.3429,3.343,0,3.3579,3.3557,3.3561,3.3558,3.3562,3.3557,3.3549,3.3557,3.3502,3.351,3.3517,3.3517,3.3518,3.3522,3.3515,3.3501,3.3456,3.345,3.346,3.3472,3.3484,3.3475,3.3293,3.3446,3.3444,3.3443,3.3442,3.3442,3.3694,3.3714,3.3693,3.3699,3.3687,3.368,3.3694,3.3667,3.3673,3.3668,3.3639,3.3652,3.3632,3.3619,3.3608,3.3617,3.3588,3.3604,3.3607,3.3611,3.3618,3.3485,3.3616,3.3616,3.3615,3.3615,3.3614,0,3.3839,3.3822,3.3828,3.3817,3.3821,3.3779,3.3767,3.3773,3.3785,3.3771,3.3771,3.3779,3.3782,3.375,3.3748,3.3761,3.374,3.3762,3.3759,3.3755,3.3645,3.3635,3.3779,3.3779,3.3778,3.3778,3.3778,3.3778,3.3915,3.3945,3.3921,3.3944,3.3927,3.3938,3.3934,3.3927,3.3915,3.3925,3.3927,3.3906,3.3884,3.388,3.388,3.3871,3.3871,3.39,3.3883,3.378,3.3764,3.3748,3.3738,3.3901,3.3901,3.3991,3.3992,3.3993]},{"header":{"parameterUnit":"m.s-1","parameterCategory":1,"la1":30.2991,"la2":30.254,"lo1":-89.0895,"lo2":-89.0444,"dy":0.0017,"dx":0.0017,"nx":28,"ny":28,"refTime":"2023-08-08T03:00:00:Z","depth":0,"parameterNumber":3,"parameterNumberName":"V-component_of_WINDS"},"data":[0,0,0,0,0,0,0,0,0,0,0,0,0,0,0,0,0,0,0,0,0,0,0,0,0,0,0,0,0,0,0,0,0,0,0,0,0,0,0,0,0,0,0,0,0,0,0,0,0,0,0,0,0,0,0,0,0,0,4.6278,4.6279,0,4.6363,4.6364,4.6365,4.6346,4.6345,4.6343,4.6341,4.6423,4.6426,4.643,0,0,0,0,0,0,0,0,0,0,0,0,0,4.6091,4.6094,4.6278,4.6279,4.628,4.6363,4.6364,4.6366,4.6346,4.6344,4.6343,4.6341,4.6421,4.6426,4.643,0,0,0,0,0,0,0,0,0,0,0,0,0,4.6174,4.6096,4.6278,4.6281,4.6282,4.6363,4.6364,4.6366,4.6347,4.6344,4.6342,4.634,4.642,4.6425,4.6431,4.6512,0,0,4.6447,4.645,0,0,0,0,0,0,0,0,4.6169,4.6181,4.6279,4.6281,4.6282,4.6342,4.6328,4.6415,4.6347,4.6322,4.6341,4.6339,4.6397,4.6404,4.6425,4.6516,4.652,4.6448,4.6451,4.6454,4.6455,0,0,0,0,0,0,0,4.6163,4.6177,4.6312,4.6281,4.6282,4.6275,4.6284,4.6344,4.6372,4.6324,4.6323,4.6334,4.6397,4.642,4.6427,4.6521,4.6448,4.6453,4.6456,4.6458,4.668,4.6682,0,0,0,0,0,0,4.6157,4.6172,4.6309,4.6314,4.6219,4.6281,4.6291,4.6325,4.6371,4.6376,4.6335,4.6332,4.6412,4.6421,4.643,4.6527,4.6453,4.6459,4.6462,4.6677,4.668,4.6683,0,0,0,0,0,0,4.6153,4.617,4.6305,4.6243,4.626,4.6286,4.6325,4.6328,4.6351,4.638,4.6384,4.6354,4.6411,4.6422,4.6492,4.6529,4.6461,4.6466,4.6674,4.6678,4.6682,4.6722,0,0,0,0,0,0,4.6148,4.6168,4.6202,4.6244,4.6263,4.6368,4.6327,4.6331,4.6361,4.6358,4.6399,4.6403,4.641,4.6484,4.6497,4.6536,4.647,4.6671,4.6676,4.668,4.6718,4.6727,4.6735,0,0,0,0,0,4.6141,4.6209,4.6203,4.622,4.6305,4.637,4.6381,4.6389,4.6364,4.6396,4.6415,4.6402,4.6524,4.6491,4.6506,4.6547,4.6668,4.6674,4.668,4.6714,4.6725,4.6735,0,0,0,0,0,0,4.6168,4.6214,4.6209,4.6292,4.6328,4.6367,4.6408,4.6401,4.6443,4.6438,4.6444,4.6454,4.6524,4.6542,4.6506,4.6627,4.6592,4.6601,4.6612,4.6624,4.6632,4.6626,4.6475,0,0,0,0,0,4.6184,4.6236,4.6272,4.6342,4.636,4.6381,4.641,4.6413,4.6449,4.6463,4.6487,4.6521,4.6566,4.6596,4.664,4.6721,4.6728,4.6756,4.6764,4.6771,4.6779,4.682,4.6833,4.6702,4.6702,4.6702,0,0,4.6217,4.6248,4.628,4.6348,4.6376,4.6426,4.6394,4.6449,4.6485,4.6471,4.6538,4.6557,4.6594,4.6669,4.6703,4.6687,4.6816,4.6779,4.6784,4.6788,4.6828,4.684,4.6851,4.6706,4.6706,4.6705,0,0,4.6302,4.6332,4.6393,4.6422,4.6465,4.6478,4.6493,4.6533,4.6545,4.6613,4.6603,4.6645,4.6725,4.6751,4.6775,4.6869,4.6858,4.6883,4.6928,4.6969,4.6979,4.6988,4.702,4.7031,4.6891,4.6891,4.6891,0,4.6337,4.6415,4.6425,4.6481,4.6509,4.6501,4.656,4.6587,4.6641,4.666,4.6641,4.674,4.6764,4.6845,4.6867,4.6888,4.6902,4.6878,4.6977,4.6987,4.6995,4.7025,4.7037,4.6894,4.6893,4.6893,4.6893,0,4.6454,4.6508,4.6551,4.6606,4.664,4.6697,4.6713,4.6746,4.6746,4.676,4.6828,4.6858,4.6907,4.6926,4.6926,4.7005,4.6993,4.6976,4.6941,4.701,4.7038,4.705,4.6897,4.6896,4.6896,4.6895,0,0,4.6559,4.6618,4.6633,4.6657,4.6703,4.6744,4.68,4.6849,4.6876,4.6914,4.6959,4.7026,4.7009,4.7037,4.7039,4.7075,4.7145,4.7053,4.7054,4.7067,4.7232,4.7244,4.7257,4.7138,4.7141,4.7143,4.7228,0,4.6647,4.6748,4.6758,4.6847,4.6895,4.6887,4.6935,4.6967,4.6982,4.7023,4.7038,4.7085,4.7061,4.7077,4.7113,4.7129,4.7178,4.7123,4.7178,4.718,4.7168,4.7272,4.7285,4.7365,4.7239,4.7241,4.7243,0,4.6763,4.6806,4.69,4.6939,4.6959,4.7003,4.7048,4.7088,4.7124,4.7131,4.7162,4.7159,4.7214,4.7178,4.7251,4.7214,4.7237,4.7248,4.7251,4.7256,4.7214,4.7277,4.7391,4.7402,4.7261,4.7259,4.7258,0,4.6828,4.6908,4.6975,4.6996,4.7043,4.7073,4.7093,4.7127,4.7155,4.7194,4.7212,4.7256,4.7279,4.7312,4.732,4.7294,4.7393,4.7358,4.7399,4.7399,4.742,4.7418,4.7536,4.7437,4.7437,4.7437,4.7436,0,4.6924,4.6982,4.7004,4.7045,4.7109,4.7118,4.718,4.7198,4.7228,4.727,4.7265,4.7304,4.7314,4.7354,4.7361,4.7419,4.743,4.7436,4.7437,4.7436,4.7435,4.745,4.7444,4.744,4.7439,4.7438,4.7438,0,4.7006,4.7024,4.7096,4.7135,4.7145,4.719,4.7222,4.726,4.7274,4.7327,4.734,4.7361,4.7408,4.742,4.7476,4.748,4.7549,4.7545,4.7538,4.7537,4.7577,4.7572,4.7707,4.7725,4.7616,4.7617,4.7618,0,4.7066,4.7111,4.7154,4.7183,4.7205,4.7252,4.7281,4.7291,4.7322,4.7364,4.7396,4.7443,4.7481,4.7556,4.7575,4.7617,4.7613,4.7658,4.7619,4.7616,4.7611,4.7608,4.7611,4.7664,4.7665,4.7666,4.7667,0,4.717,4.7176,4.722,4.7266,4.7302,4.7338,4.7373,4.7396,4.7411,4.7445,4.7494,4.7523,4.7581,4.7626,4.7668,4.7686,4.7678,4.7679,4.7691,4.7689,4.7682,4.7685,4.7556,4.7676,4.7675,4.7674,4.7674,4.7673,4.7242,4.728,4.7316,4.7364,4.7392,4.7424,4.7462,4.748,4.7522,4.7571,4.7574,4.7626,4.7658,4.7714,4.7735,4.7774,4.776,4.7777,4.7781,4.7785,4.7788,4.7677,4.7782,4.7782,4.7782,4.7781,4.7781,0,4.7343,4.7366,4.7411,4.746,4.7497,4.7489,4.7526,4.7557,4.7604,4.7636,4.7673,4.7728,4.7772,4.7794,4.7837,4.7864,4.7862,4.7875,4.7872,4.7876,4.7798,4.7784,4.7876,4.7876,4.7876,4.7876,4.7876,4.7876,4.74,4.7464,4.7475,4.7551,4.7573,4.7626,4.7648,4.7677,4.7702,4.7764,4.7801,4.7816,4.7843,4.7888,4.7927,4.7932,4.7947,4.7962,4.7965,4.7892,4.7882,4.7873,4.7858,4.7966,4.7966,4.8039,4.804,4.804]}]]